Temp
85 84 85 84 84 83 81 84 85 86 87 87 86 89 86 85 85 85 84 84 83 84
83 82 84 83 82 83 81 79 85 86 87 87 82 88 86 85 83 82 85 83 84 83
83 84 86 85 84 86 85 79 82 85 84 84 85 87 85 83 85 84 85 85 82 83
85 85 85 85 85 84 86 88 85 87 84 86 84 86 84 83 83 83 83 84 83 83
86 86 85 84 84 86 85 86 85 86 86 83 85 82 83 84 84 82 84 84 83 84
85 86 84 85 81 83 84 82 84 84 84 84 84 84 84 84 84 84 83 84 85 85
84 84 85 84 84 83 82 82 82 82 82 83 85 85 81 82 83 83 85 84 85 86
82 83 84 84 83 84 83 83 82 81 82 82 84 75 74 79 81 83 85 85 87 86
82 82 81 82 81 82 82 82 81 81 79 80 73 65 67 71 82 81 80 80 83 83
78 79 79 80 80 80 80 80 79 80 78 73 68 63 64 68 81 81 81 79 80 80
69 68 72 76 75 76 79 79 79 78 74 69 64 60 62 65 77 78 77 76 74 74
64 63 65 64 67 71 76 74 71 69 69 67 64 59 60 67 75 78 73 69 68 72
62 62 62 62 64 66 68 68 67 67 67 64 65 58 60 66 72 75 73 70 67 62
64 63 63 62 63 65 65 64 63 62 63 65 64 62 58 59 70 70 75 74 74 70
MSLP
1017.82 1017.84 1018.08 1018.25 1018.40 1018.31 1018.47 1018.54 1018.42 1018.56 1018.70 1018.77 1018.71 1018.61 1018.54 1018.86 1019.03 1019.13 1019.34 1019.82 1019.76 1019.77
1017.60 1017.80 1017.61 1018.16 1018.17 1018.28 1018.56 1018.73 1018.77 1018.80 1018.71 1018.80 1019.18 1018.85 1018.97 1019.25 1019.46 1019.28 1019.20 1019.28 1019.26 1019.29
1017.41 1017.51 1017.68 1017.94 1018.06 1018.27 1018.31 1018.70 1019.07 1018.92 1018.87 1018.97 1018.84 1018.91 1019.26 1019.49 1019.59 1019.54 1019.50 1019.52 1019.69 1019.63
1016.83 1017.16 1017.43 1017.69 1017.96 1018.21 1018.16 1018.26 1018.51 1018.82 1018.99 1019.14 1019.20 1019.19 1019.46 1019.61 1019.91 1019.99 1019.86 1019.72 1019.69 1019.66
1016.41 1016.67 1017.14 1017.45 1017.71 1017.97 1018.18 1018.11 1018.37 1018.73 1019.06 1019.22 1019.25 1019.37 1019.53 1019.63 1019.62 1019.84 1019.74 1019.82 1019.78 1019.78
1016.19 1016.52 1016.84 1017.08 1017.45 1017.91 1018.21 1018.58 1018.58 1018.81 1019.06 1019.32 1019.44 1019.43 1019.60 1019.63 1019.47 1019.43 1019.48 1019.49 1019.66 1019.69
1015.84 1016.36 1016.71 1016.95 1017.25 1017.71 1018.14 1018.47 1018.79 1018.95 1019.12 1019.41 1019.57 1019.50 1019.73 1019.90 1019.63 1019.46 1019.40 1019.23 1019.16 1019.40
1015.80 1016.37 1016.63 1016.86 1017.29 1017.60 1018.02 1018.29 1018.64 1018.95 1019.27 1019.48 1019.63 1020.48 1020.36 1019.90 1019.62 1019.56 1019.38 1019.36 1019.35 1019.41
1016.14 1016.58 1016.86 1017.02 1017.44 1017.63 1018.06 1018.22 1018.50 1018.84 1019.10 1019.53 1020.60 1020.90 1020.69 1020.20 1019.58 1019.73 1019.65 1019.77 1019.58 1019.85
1016.85 1016.90 1017.05 1017.29 1017.55 1017.86 1018.05 1018.30 1018.60 1018.98 1019.33 1020.18 1021.13 1021.38 1020.75 1020.52 1020.20 1020.03 1020.21 1020.17 1020.06 1020.24
1018.19 1018.25 1017.88 1017.76 1017.85 1018.04 1018.26 1018.39 1018.82 1019.26 1020.12 1021.03 1021.65 1021.46 1021.14 1020.76 1020.64 1020.37 1020.66 1020.89 1021.09 1021.28
1019.22 1019.24 1019.44 1019.46 1019.12 1019.01 1018.71 1019.24 1019.74 1020.33 1020.68 1021.32 1021.88 1021.69 1021.18 1020.98 1020.77 1020.58 1021.26 1021.76 1021.82 1022.02
1019.89 1019.95 1020.08 1020.29 1020.10 1019.71 1019.62 1020.14 1020.71 1021.17 1021.64 1021.84 1022.24 1022.15 1021.58 1021.18 1020.99 1021.08 1021.69 1022.18 1022.47 1022.81
1020.54 1020.53 1020.53 1020.85 1021.02 1020.55 1020.75 1020.98 1021.33 1021.93 1022.28 1022.47 1022.84 1022.74 1022.22 1022.00 1021.91 1021.82 1021.44 1022.05 1022.39 1022.78
Wind_Speed
5 6 4 5 2 4 5 4 8 5 5 5 4 2 4 4 4 3 3 4 3 4
6 4 4 5 2 3 6 4 3 6 4 4 5 3 3 3 4 1 4 5 5 4
8 6 4 4 4 2 1 10 10 6 5 5 4 2 3 5 4 4 2 4 6 5
9 10 8 5 4 5 2 3 6 3 4 5 4 5 4 4 4 4 5 5 5 5
8 8 9 7 6 5 4 3 5 5 4 5 6 5 5 6 5 6 4 5 5 4
8 6 9 8 8 7 5 5 4 3 4 4 6 5 7 6 5 5 5 5 4 3
11 8 7 6 5 5 6 6 7 7 6 5 6 5 4 6 7 5 7 5 4 3
7 6 6 5 6 4 6 8 7 6 5 7 4 5 6 6 8 6 4 5 4 3
4 5 5 4 6 5 6 5 5 6 6 6 6 7 9 8 3 5 3 7 2 4
2 3 4 4 3 4 4 5 7 6 6 9 7 10 10 11 5 3 1 3 5 5
10 10 7 2 2 2 1 3 3 5 11 8 7 10 10 8 3 4 9 9 8 8
7 8 7 8 7 5 4 5 9 8 10 9 8 12 10 6 5 6 9 8 8 8
7 7 7 7 8 6 8 9 8 11 9 11 9 13 15 11 4 5 7 7 7 10
8 7 6 6 5 6 7 8 9 9 7 9 7 10 15 16 9 6 3 6 5 5
Wind_Direction
190 177 183 201 197 249 181 246 159 177 180 244 218 237 295 323 294 322 327 350 345 338
187 235 205 136 184 243 131 103 154 196 201 189 241 232 334 279 300 266 314 314 331 333
190 182 188 184 224 246 11 152 212 171 189 212 219 181 245 287 280 284 309 340 7 355
186 177 180 189 205 220 204 175 159 193 200 193 209 212 201 281 310 334 300 326 315 308
194 167 169 193 194 207 190 238 174 179 223 212 204 219 182 245 285 221 239 241 269 288
180 199 181 191 166 198 180 204 217 217 242 248 248 211 203 222 254 292 279 230 248 299
176 189 208 184 186 157 183 184 219 193 206 227 237 248 250 246 249 246 265 295 255 282
168 193 214 174 180 182 172 191 200 205 222 228 237 26 339 311 221 236 253 286 330 358
182 187 222 205 191 198 194 204 203 193 197 233 69 15 2 352 337 3 313 293 3 345
280 212 202 205 209 217 230 222 198 210 212 86 67 5 16 358 335 336 325 245 348 346
50 32 6 347 141 261 255 220 214 88 93 91 46 19 12 349 304 307 56 45 53 61
50 52 25 30 9 352 135 83 87 84 89 84 49 12 13 354 301 82 87 64 35 53
61 57 53 32 355 16 62 79 88 86 78 70 54 20 21 25 9 119 125 116 96 67
71 69 61 55 22 21 75 83 74 79 57 72 54 35 35 25 39 12 32 125 92 63